Regional Weather Roundup
Issued by NWS

Home | Current Version | Previous Version | Text Only | Print | Product List | Glossary Off
Versions: 1 2 3 4 5 6 7 8 9 10 11 12 13 14 15 16 17 18 19 20 21 22 23 24 25 26 27 28 29 30 31 32 33 34 35 36 37 38 39 40 41 42 43 44 45 46 47 48 49 50

000
ASUS43 KLOT 061303
RWRIL

ILLINOIS REGIONAL WEATHER ROUNDUP
NATIONAL WEATHER SERVICE CHICAGO/ROMEOVILLE IL
700 AM CST SAT FEB 06 2016

NOTE: "FAIR" INDICATES FEW OR NO CLOUDS BELOW 12,000 FEET WITH NO
SIGNIFICANT WEATHER AND/OR OBSTRUCTIONS TO VISIBILITY.

* THESE STATIONS ARE NOT UNDER NWS QUALITY CONTROL. THEY ALSO MAY NOT
  REPORT WEATHER SUCH AS PRECIPITATION OR FOG.

ILZ001-002-007-009-015-016-024-061400-
NORTHWEST ILLINOIS

CITY           SKY/WX    TMP DP  RH WIND       PRES   REMARKS
MOLINE         CLEAR     28  21  75 CALM      30.26S
STERLING*      CLOUDY    27  21  80 SW5       30.24S WCI  21
SAVANNA*       CLOUDY    28  24  84 SW6       30.26S WCI  22
$$

ILZ003-004-008-010-011-017-018-061400-
NORTH CENTRAL ILLINOIS

CITY           SKY/WX    TMP DP  RH WIND       PRES   REMARKS
ROCKFORD       CLEAR     24  21  88 S8        30.26F WCI  15
FREEPORT*      CLOUDY    26  22  85 SW10      30.26S WCI  17
DE KALB*       CLEAR     22  21  93 S7        30.26S FOG     WCI  14
$$

ILZ005-006-012>014-019>023-061400-
NORTHEAST ILLINOIS

CITY           SKY/WX    TMP DP  RH WIND       PRES   REMARKS
CHICAGO-OHARE  PTCLDY    25  21  85 SW6       30.26S WCI  18
CHICAGO-MIDWAY PTCLDY    27  20  75 SW9       30.28S WCI  18
AURORA         CLEAR     24  21  88 S7        30.28S FOG     WCI  16
LANSING*       CLOUDY    25  22  89 S7        30.30S WCI  17
WAUKEGAN       CLEAR     24  21  88 SW9       30.24R WCI  14
DUPAGE AIRPORT CLEAR     23  19  85 SW8       30.26F WCI  14
WHEELING       CLEAR     25  21  85 SW5       30.28R WCI  19
MORRIS*        PTCLDY    23  21  91 S5        30.27F FOG     WCI  17
NORTHERLY ISL    N/A     27  22  81 S3          N/A
$$

LMZ740>746-061400-
SOUTHERN LAKE MICHIGAN

STATION/POSITION SKY/WX   TEMP    WIND        PRES    VSBY  WAVE
                          AIR SEA DIR/SP/G                  HT/PER
                          (F)     (DEG/KT/KT) (MB)    (MI)  (FT/S)
HARRISON CRIB              30     200/ 10/ 12   N/A
BURNHAM HARBOR             27     200/  7/  9   N/A
CALUMET HARBOR             26     200/  6/  8 1024.9R
BURNS HARBOR               25     180/  6/  9 1026.4S
MICHIGAN CITY              25     180/  7/  8   N/A
$$

ILZ025>027-034>036-040-047-049-050-058-095>099-061400-
WEST-CENTRAL ILLINOIS

CITY           SKY/WX    TMP DP  RH WIND       PRES   REMARKS
QUINCY         CLEAR     26  19  74 SE5       30.27S WCI  20
MACOMB*        CLEAR     24  23  95 CALM      30.30S
$$

ILZ028>032-037-038-041>044-048-051>054-059>061-061400-
CENTRAL ILLINOIS

CITY           SKY/WX    TMP DP  RH WIND       PRES   REMARKS
BLOOMINGTON    CLEAR     24  24 100 SW7       30.31R WCI  16
DECATUR        CLEAR     26  22  84 S6        30.32R WCI  19
PEORIA         CLEAR     25  22  88 S3        30.30S FOG
LACON*         PTCLDY    25  21  85 CALM      30.29S
LINCOLN*       CLEAR     26  25  96 S3        30.31S
SPRINGFIELD    CLEAR     28  24  85 CALM      30.31R
TAYLORVILLE    NOT AVBL
$$

ILZ033-039-045-046-055>057-062-063-061400-
EAST-CENTRAL ILLINOIS

CITY           SKY/WX    TMP DP  RH WIND       PRES   REMARKS
CHAMPAIGN      PTCLDY    25  23  92 S3        30.32R
MATTOON        CLOUDY    28  24  85 S8        30.31S WCI  20
$$

ILZ079-100>102-061400-
SOUTHWEST ILLINOIS

CITY           SKY/WX    TMP DP  RH WIND       PRES   REMARKS
ALTON          CLEAR     25  23  93 E6        30.31S WCI  18
BELLEVILLE     CLEAR     23  22  98 CALM      30.31S
CAHOKIA*       CLEAR     25  20  81 CALM      30.32S
SPARTA*        CLEAR     25  22  88 CALM      30.33R
$$

ILZ064>066-069>071-074>076-080>082-084>086-088>090-092>094-061400-
SOUTH-CENTRAL ILLINOIS

CITY           SKY/WX    TMP DP  RH WIND       PRES   REMARKS
CARBONDALE     PTCLDY    22  19  89 SE3       30.33R
CAIRO*         PTCLDY    27  24  87 CALM      30.36R
MARION         PTCLDY    27  23  86 S5        30.34R WCI  21
MT. VERNON     CLOUDY    28  21  74 CALM      30.33R
CENTRALIA*     CLOUDY    30  26  85 CALM      30.32R FOG
SALEM*         MOCLDY    30  24  78 CALM      30.33R
$$

ILZ067-068-072-073-078-083-087-091-061400-
SOUTHEAST ILLINOIS

CITY           SKY/WX    TMP DP  RH WIND       PRES   REMARKS
LAWRENCEVILLE  CLOUDY    26  24  92 CALM      30.35R
HARRISBURG*    PTCLDY    24  22  93 CALM      30.35R
ROBINSON*      CLOUDY    25  23  93 CALM      30.36R
CARMI*         PTCLDY    27  26  96 CALM      30.34R
$$

ABBREVIATIONS USED IN REMARKS
   TC - TEMPERATURE IN CELSIUS
  WCI - WIND CHILL INDEX
   HX - HEAT INDEX
  VSB - VISIBILITY
$$




USA.gov is the U.S. government's official web portal to all federal, state and local government web resources and services.